User: anonymous   Login
Location: Unspecified
(0.0000°N, 0.0000°E)
Time: 19:04:47
(UTC+00:00)
Language:

TBA - TO BE ASSIGNED - Orbit

View from above orbital plane
View from above orbital plane
View from above satellite
View from above satellite

Ground track
Ground track

The orbit is defined by the following mean orbital elements,

1 67463U          26145.32460699 +.00000000 +00000-0 +61460-3 0 00006
2 67463  42.9995 132.3292 0000963 275.9017  84.1725 15.27582651    06
Epoch (UTC): 25 May 2026 07:47:26
Eccentricity: 0.0000963
inclination: 42.9995°
perigee height: 482 km
apogee height: 484 km
right ascension of ascending node: 132.3292°
argument of perigee: 275.9017°
revolutions per day: 15.27582651
mean anomaly at epoch: 84.1725°

The dashed part of the orbit path shows where the satellite is in the earth's shadow,  

DLR